Weather History for Mobile, AL

Change the Weather History Date:

Sunday, November 21, 2010

  Actual Average Record
Temperature  
Mean Temperature 69 °F 58 °F  
Max Temperature 78 °F 69 °F 82 °F (1994)
Min Temperature 59 °F 47 °F 25 °F (1887)
Degree Days  
Heating Degree Days 0 8  
Month to date heating degree days 120 120  
Since 1 July heating degree days 144 175  
Cooling Degree Days 4 1  
Month to date cooling degree days 14 33  
Year to date cooling degree days 2769 2495  
Growing Degree Days 18 (Base 50)    
Moisture  
Dew Point 61 °F    
Average Humidity 75    
Maximum Humidity 100    
Minimum Humidity 50    
Precipitation  
Precipitation 0.00 in 0.17 in 2.39 in (1977)
Month to date precipitation 4.45 3.63  
Year to date precipitation 57.01 59.59  
Snow  
Snow 0.00 in 0.00 in 0.00 in (2002)
Month to date snowfall 0.0 0.0  
Since 1 July snowfall 0.0 0.0  
Snow Depth 0.00 in    
Sea Level Pressure  
Sea Level Pressure 30.24 in    
Wind  
Wind Speed 7 mph (ESE)    
Max Wind Speed 14 mph    
Max Gust Speed 21 mph    
Visibility 10 miles    
Events      
T = Trace of Precipitation, MM = Missing Value Source: NWS Daily Summary

Daily Weather History Graph

Daily Weather History Graph

Search for Another Location

Airport:

Trip Planner

Search our weather history database for the weather conditions in past years. The results will help you decide how hot, cold, wet, or windy it might be!

Date:

Astronomy

Nov. 21, 2010 Rise Set
Actual Time 6:24 AM CST 4:53 PM CST
Civil Twilight 5:58 AM CST 5:18 PM CST
Nautical Twilight 5:29 AM CST 5:48 PM CST
Astronomical Twilight 5:00 AM CST 6:17 PM CST
Moon 4:48 PM CST (11/21) 6:20 AM CST (11/21)
Length of Visible Light 11h 20m
Length of Day
10h 28m
Full, 100% of the Moon is Illuminated
Nov 21
Full
Nov 28
Last Quarter
Dec 5
New
Dec 13
First Quarter
Dec 21
Full

Hourly Weather History & Observations

Time (CST) Temp. Dew Point Humidity Pressure Visibility Wind Dir Wind Speed Gust Speed Precip Events Conditions
12:56 AM 60.1 °F 59.0 °F 96% 30.24 in 5.0 mi ESE 3.5 mph - N/A   Scattered Clouds
1:56 AM 61.0 °F 60.1 °F 97% 30.23 in 8.0 mi ESE 6.9 mph - N/A   Partly Cloudy
2:56 AM 61.0 °F 60.1 °F 97% 30.23 in 10.0 mi SE 5.8 mph - N/A   Partly Cloudy
3:56 AM 61.0 °F 59.0 °F 93% 30.24 in 10.0 mi ESE 3.5 mph - N/A   Mostly Cloudy
4:56 AM 60.1 °F 59.0 °F 96% 30.25 in 10.0 mi ESE 3.5 mph - N/A   Mostly Cloudy
5:56 AM 60.1 °F 57.9 °F 93% 30.26 in 10.0 mi East 4.6 mph - N/A   Scattered Clouds
6:56 AM 60.8 °F 59.0 °F 94% 30.28 in 6.0 mi Calm Calm - N/A   Scattered Clouds
7:56 AM 66.0 °F 62.1 °F 87% 30.29 in 10.0 mi ESE 6.9 mph - N/A   Scattered Clouds
8:56 AM 70.0 °F 61.0 °F 73% 30.30 in 10.0 mi ESE 9.2 mph - N/A   Scattered Clouds
9:56 AM 73.0 °F 60.1 °F 64% 30.31 in 10.0 mi SE 11.5 mph 19.6 mph N/A   Scattered Clouds
10:56 AM 75.0 °F 61.0 °F 62% 30.30 in 10.0 mi SE 9.2 mph - N/A   Partly Cloudy
11:56 AM 75.0 °F 60.1 °F 60% 30.27 in 10.0 mi SSE 8.1 mph - N/A   Scattered Clouds
12:56 PM 75.9 °F 59.0 °F 56% 30.24 in 10.0 mi ESE 9.2 mph - N/A   Mostly Cloudy
1:56 PM 75.0 °F 55.9 °F 51% 30.23 in 10.0 mi ESE 8.1 mph - N/A   Mostly Cloudy
2:56 PM 75.0 °F 57.9 °F 55% 30.22 in 10.0 mi SE 9.2 mph - N/A   Mostly Cloudy
3:56 PM 73.0 °F 57.0 °F 57% 30.23 in 10.0 mi SE 9.2 mph - N/A   Mostly Cloudy
4:56 PM 71.6 °F 60.8 °F 69% 30.23 in 10.0 mi SE 8.1 mph - N/A   Mostly Cloudy
5:56 PM 68.0 °F 62.1 °F 81% 30.23 in 10.0 mi SE 6.9 mph - N/A   Mostly Cloudy
6:56 PM 68.0 °F 63.0 °F 84% 30.23 in 10.0 mi ESE 8.1 mph - N/A   Mostly Cloudy
7:29 PM 66.2 °F 64.4 °F 94% 30.23 in 10.0 mi ESE 6.9 mph - N/A   Mostly Cloudy
7:56 PM 66.9 °F 64.0 °F 90% 30.22 in 10.0 mi ESE 6.9 mph - N/A   Mostly Cloudy
8:08 PM 66.2 °F 64.4 °F 94% 30.23 in 10.0 mi East 8.1 mph - N/A   Mostly Cloudy
8:56 PM 66.9 °F 64.9 °F 93% 30.22 in 10.0 mi ESE 6.9 mph - N/A   Mostly Cloudy
9:56 PM 66.9 °F 64.0 °F 90% 30.21 in 10.0 mi ESE 9.2 mph - N/A   Scattered Clouds
10:56 PM 66.9 °F 64.0 °F 90% 30.21 in 10.0 mi ESE 8.1 mph - N/A   Scattered Clouds
11:56 PM 66.9 °F 64.0 °F 90% 30.19 in 10.0 mi ESE 6.9 mph - N/A   Mostly Cloudy